Location: Newark
(51.2625°N, 13.3939°E)
Time: 01:41:43
(UTC+00:00)

Transit 2A Rocket - All Passes

Search period start: 13 November 2019 00:00
Search period end: 23 November 2019 00:00
Orbit: 594 x 909 km, 66.7° (Epoch: 11 November)

Date Brightness Start Highest point End Pass type
(mag) Time Alt. Az. Time Alt. Az. Time Alt. Az.
13 Nov - 00:11:36 10° W 00:15:34 28° NW 00:19:23 10° NNE night (unlit)
13 Nov - 01:57:52 10° NW 01:59:35 12° NNW 02:01:16 10° NNE visible
13 Nov - 03:42:07 10° NNW 03:44:05 13° NNE 03:46:03 10° NE visible
13 Nov - 05:24:00 10° NNW 05:27:57 33° NE 05:31:56 10° ESE visible
13 Nov - 07:06:28 10° NW 07:10:35 44° WSW 07:14:50 10° S daylight
13 Nov - 21:45:56 10° S 21:50:19 37° ESE 21:54:26 10° NE night (unlit)
13 Nov - 23:28:27 10° WSW 23:32:50 40° NW 23:37:00 10° NNE night (unlit)
14 Nov - 01:14:10 10° NW 01:16:33 14° NNW 01:18:52 10° NNE visible
14 Nov - 02:59:40 10° N 03:01:01 11° N 03:02:23 10° NNE visible
14 Nov - 04:41:38 10° NNW 04:45:10 24° NNE 04:48:43 10° E visible
14 Nov - 06:23:49 10° NW 06:28:09 75° SW 06:32:35 10° SSE daylight
14 Nov - 08:08:49 10° W 08:09:55 11° WSW 08:11:01 10° WSW daylight
14 Nov - 21:04:16 10° SSE 21:07:58 23° ESE 21:11:30 10° ENE night (unlit)
14 Nov - 22:45:33 10° SW 22:50:12 61° NW 22:54:35 10° NNE night (unlit)
15 Nov - 00:30:33 10° WNW 00:33:34 17° NNW 00:36:31 10° NNE night (unlit)
15 Nov - 02:16:54 10° NNW 02:17:57 11° N 02:18:59 10° NNE visible
15 Nov - 03:59:17 10° NNW 04:02:17 18° NNE 04:05:18 10° ENE visible
15 Nov - 05:41:17 10° NW 05:45:37 68° NE 05:50:02 10° SE visible
15 Nov - 07:24:38 10° WNW 07:27:42 19° WSW 07:30:50 10° SSW daylight
15 Nov - 20:23:23 10° SE 20:25:43 14° ESE 20:27:59 10° ENE night (unlit)
15 Nov - 22:02:54 10° SW 22:07:38 85° SE 22:12:04 10° NE night (unlit)
15 Nov - 23:47:05 10° W 23:50:41 23° NNW 23:54:10 10° NNE night (unlit)
16 Nov - 01:33:33 10° NNW 01:34:52 11° N 01:36:10 10° N visible
16 Nov - 03:16:57 10° NNW 03:19:20 14° NNE 03:21:43 10° NE visible
16 Nov - 04:58:50 10° NNW 05:02:59 43° NE 05:07:12 10° ESE visible
16 Nov - 06:41:33 10° NW 06:45:24 31° WSW 06:49:22 10° S daylight
16 Nov - 21:20:34 10° SSW 21:25:10 52° ESE 21:29:28 10° NE night (unlit)
16 Nov - 23:03:47 10° WSW 23:07:53 31° NW 23:11:49 10° NNE night (unlit)
17 Nov - 00:49:54 10° NW 00:51:48 12° NNW 00:53:41 10° NNE night (unlit)
17 Nov - 02:34:34 10° N 02:36:18 12° NNE 02:38:03 10° NE visible
17 Nov - 04:16:27 10° NNW 04:20:15 29° NE 04:24:08 10° E visible
17 Nov - 05:58:47 10° NW 06:03:01 53° WSW 06:07:22 10° SSE daylight
17 Nov - 20:38:36 10° S 20:42:45 31° ESE 20:46:42 10° NE night (unlit)
17 Nov - 22:20:43 10° WSW 22:25:11 45° NW 22:29:25 10° NNE night (unlit)
18 Nov - 00:06:12 10° WNW 00:08:46 15° NNW 00:11:18 10° NNE night (unlit)
18 Nov - 01:52:03 10° N 01:53:14 11° N 01:54:25 10° NNE visible
18 Nov - 03:34:05 10° NNW 03:37:26 21° NNE 03:40:50 10° E visible
18 Nov - 05:16:11 10° NW 05:20:32 88° SW 05:25:01 10° SE visible
18 Nov - 07:00:18 10° W 07:02:26 13° WSW 07:04:35 10° SW daylight
18 Nov - 19:57:09 10° SSE 20:00:27 19° ESE 20:03:37 10° ENE night (unlit)
18 Nov - 21:37:54 10° SW 21:42:34 71° NW 21:46:58 10° NE night (unlit)
18 Nov - 23:22:38 10° WNW 23:25:50 19° NNW 23:28:57 10° NNE night (unlit)
19 Nov - 01:09:06 10° NNW 01:10:09 11° N 01:11:11 10° NNE visible
19 Nov - 02:51:44 10° NNW 02:54:32 16° NNE 02:57:21 10° ENE visible
19 Nov - 04:33:41 10° NNW 04:37:58 57° NE 04:42:23 10° SE visible
19 Nov - 06:16:46 10° WNW 06:20:11 23° WSW 06:23:42 10° SSW daylight
19 Nov - 19:16:54 10° ESE 19:18:14 11° ESE 19:19:33 10° E night (unlit)
19 Nov - 20:55:22 10° SSW 21:00:02 72° SE 21:04:26 10° NE night (unlit)
19 Nov - 22:39:13 10° W 22:42:59 25° NW 22:46:37 10° NNE night (unlit)
20 Nov - 00:25:36 10° NNW 00:27:04 11° N 00:28:31 10° N night (unlit)
20 Nov - 02:09:23 10° NNW 02:11:33 13° NNE 02:13:43 10° NE visible
20 Nov - 03:51:16 10° NNW 03:55:19 37° NE 03:59:27 10° ESE visible
20 Nov - 05:33:50 10° NW 05:37:51 37° WSW 05:42:00 10° S visible
20 Nov - 20:13:09 10° S 20:17:35 43° ESE 20:21:47 10° NE night (unlit)
20 Nov - 21:56:00 10° WSW 22:00:12 35° NW 22:04:14 10° NNE night (unlit)
20 Nov - 23:41:55 10° NW 23:44:00 13° NNW 23:46:05 10° NNE night (unlit)
21 Nov - 01:26:59 10° N 01:28:31 12° N 01:30:02 10° NNE visible
21 Nov - 03:08:53 10° NNW 03:12:33 26° NE 03:16:17 10° E visible
21 Nov - 04:51:07 10° NW 04:55:25 64° WSW 04:59:54 10° SSE visible
21 Nov - 19:31:20 10° S 19:35:13 26° ESE 19:38:56 10° ENE night (unlit)
21 Nov - 21:13:01 10° SW 21:17:32 52° NW 21:21:49 10° NNE night (unlit)
21 Nov - 22:58:15 10° WNW 23:01:01 16° NNW 23:03:44 10° NNE night (unlit)
22 Nov - 00:44:23 10° NNW 00:45:26 11° N 00:46:29 10° NNE night (unlit)
22 Nov - 02:26:32 10° NNW 02:29:43 19° NNE 02:32:55 10° ENE visible
22 Nov - 04:08:34 10° NW 04:12:55 79° NE 04:17:26 10° SE visible
22 Nov - 05:52:12 10° WNW 05:54:56 16° WSW 05:57:43 10° SSW visible
22 Nov - 18:50:09 10° SSE 18:52:56 16° ESE 18:55:38 10° ENE night (unlit)
22 Nov - 20:30:17 10° SW 20:34:56 83° NW 20:39:21 10° NE night (unlit)
22 Nov - 22:14:43 10° W 22:18:06 20° NNW 22:21:24 10° NNE night (unlit)
